When you browse on this site, cookies collect data to enhance your experience and personalize the content and advertising you see.
Visit our Privacy Policy to learn more. By continuing to use the site, you agree to this use of cookies and data.
  • In Österreich
  • Länderverzeichnis
  • Für 7 Tage
  • Wassertemperatur
  • Wetterkarte
  • News
  • Widgets
  • user-avatar
    Anmelden

    Stündliche Wetter Udong

    Heute, 14 Dezember, Samstag

    Zeit Temperatur Niederschläge Wind Luftdruck Luftfeuchtigkeit
    00:00 +25°C° 0 mm 3 m/S 759 mmHg 69%
    01:00 +25°C° 0 mm 3 m/S 758 mmHg 70%
    02:00 +25°C° 0 mm 3 m/S 758 mmHg 71%
    03:00 +24°C° 0 mm 3 m/S 758 mmHg 73%
    04:00 +24°C° 0 mm 3 m/S 758 mmHg 74%
    05:00 +24°C° 0 mm 3 m/S 758 mmHg 75%
    06:00 +24°C° 0 mm 3 m/S 759 mmHg 76%
    07:00 +24°C° 0 mm 3 m/S 759 mmHg 78%
    08:00 +26°C° 0 mm 4 m/S 759 mmHg 72%
    09:00 +28°C° 0 mm 5 m/S 759 mmHg 65%
    10:00 +30°C° 0 mm 6 m/S 760 mmHg 58%
    11:00 +33°C° 0 mm 5 m/S 759 mmHg 55%
    12:00 +34°C° 0 mm 5 m/S 758 mmHg 52%
    13:00 +35°C° 0 mm 5 m/S 757 mmHg 49%
    14:00 +35°C° 0 mm 5 m/S 757 mmHg 50%
    15:00 +34°C° 0 mm 5 m/S 756 mmHg 50%
    16:00 +34°C° 0 mm 4 m/S 755 mmHg 51%
    17:00 +33°C° 0 mm 4 m/S 756 mmHg 55%
    18:00 +30°C° 0 mm 3 m/S 756 mmHg 59%
    19:00 +29°C° 0 mm 3 m/S 757 mmHg 64%
    20:00 +28°C° 0 mm 3 m/S 757 mmHg 65%
    21:00 +28°C° 0 mm 3 m/S 758 mmHg 67%
    22:00 +27°C° 0 mm 3 m/S 758 mmHg 68%
    23:00 +27°C° 0 mm 3 m/S 758 mmHg 70%

    Morgen, 15 Dezember, Sonntag

    Zeit Temperatur Niederschläge Wind Luftdruck Luftfeuchtigkeit
    00:00 +26°C° 0 mm 3 m/S 758 mmHg 71%
    01:00 +26°C° 0 mm 3 m/S 757 mmHg 73%
    02:00 +25°C° 0 mm 3 m/S 757 mmHg 74%
    03:00 +25°C° 0 mm 3 m/S 757 mmHg 75%
    04:00 +24°C° 0 mm 3 m/S 756 mmHg 77%
    05:00 +24°C° 0 mm 3 m/S 757 mmHg 77%
    06:00 +24°C° 0 mm 3 m/S 757 mmHg 77%
    07:00 +24°C° 0 mm 3 m/S 757 mmHg 78%
    08:00 +26°C° 0 mm 3 m/S 758 mmHg 71%
    09:00 +28°C° 0 mm 4 m/S 758 mmHg 65%
    10:00 +30°C° 0 mm 5 m/S 758 mmHg 59%
    11:00 +32°C° 0 mm 4 m/S 757 mmHg 55%
    12:00 +34°C° 0 mm 4 m/S 757 mmHg 52%
    13:00 +35°C° 0 mm 4 m/S 756 mmHg 48%
    14:00 +35°C° 0 mm 4 m/S 756 mmHg 48%
    15:00 +35°C° 0 mm 3 m/S 755 mmHg 48%
    16:00 +35°C° 0 mm 3 m/S 754 mmHg 48%
    17:00 +33°C° 0 mm 3 m/S 755 mmHg 53%
    18:00 +31°C° 0 mm 3 m/S 755 mmHg 58%
    19:00 +29°C° 0 mm 2 m/S 756 mmHg 62%
    20:00 +29°C° 0 mm 2 m/S 756 mmHg 64%
    21:00 +28°C° 0 mm 2 m/S 757 mmHg 65%
    22:00 +28°C° 0 mm 2 m/S 757 mmHg 66%
    23:00 +27°C° 0 mm 3 m/S 757 mmHg 68%

    übermorgen, 16 Dezember, Montag

    Zeit Temperatur Niederschläge Wind Luftdruck Luftfeuchtigkeit
    00:00 +27°C° 0 mm 3 m/S 757 mmHg 70%
    01:00 +26°C° 0 mm 3 m/S 756 mmHg 72%
    02:00 +26°C° 0 mm 3 m/S 756 mmHg 74%
    03:00 +25°C° 0 mm 3 m/S 756 mmHg 75%
    04:00 +25°C° 0 mm 3 m/S 755 mmHg 77%
    05:00 +25°C° 0 mm 3 m/S 756 mmHg 77%
    06:00 +25°C° 0 mm 3 m/S 756 mmHg 78%
    07:00 +25°C° 0 mm 3 m/S 757 mmHg 79%
    08:00 +27°C° 0 mm 3 m/S 757 mmHg 72%
    09:00 +29°C° 0 mm 4 m/S 757 mmHg 66%
    10:00 +32°C° 0 mm 4 m/S 757 mmHg 59%
    11:00 +33°C° 0 mm 4 m/S 756 mmHg 56%
    12:00 +34°C° 0 mm 4 m/S 756 mmHg 53%
    13:00 +35°C° 0 mm 3 m/S 755 mmHg 49%
    14:00 +35°C° 0 mm 3 m/S 754 mmHg 49%
    15:00 +35°C° 0 mm 3 m/S 754 mmHg 48%
    16:00 +35°C° 0 mm 2 m/S 753 mmHg 48%
    17:00 +34°C° 0 mm 2 m/S 754 mmHg 51%
    18:00 +32°C° 0 mm 2 m/S 755 mmHg 55%
    19:00 +30°C° 0 mm 1 m/S 755 mmHg 58%
    20:00 +30°C° 0 mm 1 m/S 756 mmHg 59%
    21:00 +30°C° 0 mm 1 m/S 756 mmHg 61%
    22:00 +30°C° 0 mm 2 m/S 757 mmHg 62%
    23:00 +29°C° 0 mm 2 m/S 757 mmHg 64%

    17 Dezember, Dienstag

    Zeit Temperatur Niederschläge Wind Luftdruck Luftfeuchtigkeit
    00:00 +28°C° 0 mm 2 m/S 757 mmHg 67%
    01:00 +28°C° 0 mm 2 m/S 756 mmHg 70%
    02:00 +27°C° 0 mm 2 m/S 756 mmHg 73%
    03:00 +26°C° 0 mm 2 m/S 756 mmHg 76%
    04:00 +26°C° 0 mm 2 m/S 756 mmHg 79%
    05:00 +25°C° 0 mm 2 m/S 756 mmHg 80%
    06:00 +25°C° 0 mm 3 m/S 756 mmHg 81%
    07:00 +25°C° 0 mm 3 m/S 757 mmHg 82%
    08:00 +27°C° 0 mm 3 m/S 757 mmHg 76%
    09:00 +29°C° 0 mm 3 m/S 757 mmHg 69%
    10:00 +30°C° 0 mm 3 m/S 758 mmHg 63%
    11:00 +33°C° 0 mm 3 m/S 757 mmHg 59%
    12:00 +34°C° 0 mm 3 m/S 756 mmHg 55%
    13:00 +35°C° 0 mm 4 m/S 755 mmHg 51%
    14:00 +35°C° 0 mm 3 m/S 755 mmHg 48%
    15:00 +35°C° 0 mm 3 m/S 754 mmHg 45%
    16:00 +36°C° 0 mm 3 m/S 754 mmHg 43%
    17:00 +34°C° 0 mm 2 m/S 754 mmHg 47%
    18:00 +31°C° 0 mm 2 m/S 755 mmHg 52%
    19:00 +29°C° 0 mm 1 m/S 756 mmHg 56%
    20:00 +29°C° 0 mm 1 m/S 756 mmHg 59%
    21:00 +28°C° 0 mm 2 m/S 757 mmHg 61%
    22:00 +27°C° 0 mm 2 m/S 757 mmHg 63%
    23:00 +27°C° 0 mm 1 m/S 757 mmHg 65%

    18 Dezember, Mittwoch

    Zeit Temperatur Niederschläge Wind Luftdruck Luftfeuchtigkeit
    00:00 +26°C° 0 mm 1 m/S 757 mmHg 67%
    01:00 +26°C° 0 mm 1 m/S 756 mmHg 69%
    02:00 +25°C° 0 mm 1 m/S 756 mmHg 71%
    03:00 +25°C° 0 mm 1 m/S 756 mmHg 73%
    04:00 +24°C° 0 mm 1 m/S 756 mmHg 74%
    05:00 +24°C° 0 mm 2 m/S 756 mmHg 75%
    06:00 +24°C° 0 mm 2 m/S 757 mmHg 77%
    07:00 +24°C° 0 mm 2 m/S 757 mmHg 78%
    08:00 +25°C° 0 mm 3 m/S 757 mmHg 72%
    09:00 +27°C° 0 mm 3 m/S 758 mmHg 66%
    10:00 +29°C° 0 mm 3 m/S 758 mmHg 60%
    11:00 +31°C° 0 mm 3 m/S 757 mmHg 54%
    12:00 +34°C° 0 mm 3 m/S 756 mmHg 48%
    13:00 +35°C° 0 mm 4 m/S 755 mmHg 42%
    14:00 +35°C° 0 mm 3 m/S 755 mmHg 41%
    15:00 +35°C° 0 mm 3 m/S 754 mmHg 40%
    16:00 +35°C° 0 mm 3 m/S 754 mmHg 39%
    17:00 +32°C° 0 mm 2 m/S 754 mmHg 44%
    18:00 +30°C° 0 mm 2 m/S 755 mmHg 49%
    19:00 +28°C° 0 mm 1 m/S 755 mmHg 54%
    20:00 +28°C° 0 mm 1 m/S 756 mmHg 55%
    21:00 +27°C° 0 mm 1 m/S 757 mmHg 57%
    22:00 +27°C° 0 mm 1 m/S 757 mmHg 58%
    23:00 +27°C° 0 mm 1 m/S 757 mmHg 60%

    19 Dezember, Donnerstag

    Zeit Temperatur Niederschläge Wind Luftdruck Luftfeuchtigkeit
    00:00 +26°C° 0 mm 1 m/S 757 mmHg 63%
    01:00 +26°C° 0 mm 1 m/S 757 mmHg 65%
    02:00 +25°C° 0 mm 1 m/S 756 mmHg 67%
    03:00 +25°C° 0 mm 1 m/S 756 mmHg 69%
    04:00 +23°C° 0 mm 0 m/S 756 mmHg 71%
    05:00 +25°C° 0 mm 1 m/S 756 mmHg 72%
    06:00 +25°C° 0 mm 1 m/S 757 mmHg 74%
    07:00 +25°C° 0 mm 2 m/S 757 mmHg 75%
    08:00 +27°C° 0 mm 2 m/S 757 mmHg 69%
    09:00 +28°C° 0 mm 2 m/S 757 mmHg 63%
    10:00 +30°C° 0 mm 2 m/S 758 mmHg 57%
    11:00 +31°C° 0 mm 3 m/S 757 mmHg 54%
    12:00 +34°C° 0 mm 3 m/S 756 mmHg 50%
    13:00 +35°C° 0 mm 3 m/S 755 mmHg 47%
    14:00 +35°C° 0 mm 3 m/S 755 mmHg 47%
    15:00 +35°C° 0 mm 3 m/S 754 mmHg 47%
    16:00 +35°C° 0 mm 3 m/S 754 mmHg 48%
    17:00 +32°C° 0.1 mm 2 m/S 754 mmHg 53%
    18:00 +31°C° 0.1 mm 2 m/S 755 mmHg 58%
    19:00 +29°C° 0.1 mm 1 m/S 755 mmHg 64%
    20:00 +29°C° 0.7 mm 1 m/S 756 mmHg 67%
    21:00 +28°C° 0.7 mm 1 m/S 756 mmHg 70%
    22:00 +28°C° 0.7 mm 1 m/S 757 mmHg 74%
    23:00 +27°C° 0.1 mm 1 m/S 756 mmHg 75%
    Mehr zeigen